Location: Isola Pescaroli
(45.0500°N, 10.1667°E)
Time: 04:57:29
(UTC+00:00)

Cosmos 1844 - Visible Passes

Search period start: 06 October 2022 00:00
Search period end: 16 October 2022 00:00
Orbit: 824 x 866 km, 70.9° (Epoch: 05 October)

Date Brightness Start Highest point End Pass type
(mag) Time Alt. Az. Time Alt. Az. Time Alt. Az.
06 Oct 3.6 18:52:05 10° NNW 18:57:41 87° WSW 18:59:43 41° SSE visible
06 Oct 6.2 20:38:40 10° WNW 20:40:56 13° W 20:41:39 12° WSW visible
07 Oct 3.6 18:38:02 10° NNW 18:43:39 90° WSW 18:46:39 29° SSE visible
07 Oct 6.2 20:24:27 10° WNW 20:26:55 13° W 20:28:35 12° WSW visible
08 Oct 3.6 18:24:00 10° NNW 18:29:36 88° ENE 18:33:45 19° SSE visible
08 Oct 6.3 20:10:16 10° WNW 20:12:54 14° W 20:15:32 10° SW visible
09 Oct 3.6 18:09:57 10° NNW 18:15:34 86° ENE 18:21:05 10° SSE visible
09 Oct 6.3 19:56:05 10° WNW 19:58:53 14° W 20:01:42 10° SW visible
10 Oct 3.6 17:55:55 10° NNW 18:01:31 83° ENE 18:07:07 10° SSE visible
10 Oct 6.3 19:41:55 10° WNW 19:44:52 15° W 19:47:49 10° SW visible
11 Oct 3.6 17:41:52 10° NNW 17:47:28 81° ENE 17:53:05 10° SSE visible
11 Oct 6.3 19:27:46 10° WNW 19:30:51 15° W 19:33:57 10° SW visible
12 Oct 3.6 17:27:49 10° NNW 17:33:25 78° ENE 17:39:02 10° SSE visible
12 Oct 6.4 19:13:37 10° WNW 19:16:50 16° W 19:20:03 10° SW visible
13 Oct 3.6 17:13:47 10° NNW 17:19:23 76° ENE 17:24:59 10° SSE visible
13 Oct 6.4 18:59:28 10° WNW 19:02:49 16° W 19:06:10 10° SW visible
14 Oct 3.7 16:59:44 10° NNW 17:05:20 74° ENE 17:10:56 10° SSE visible
14 Oct 6.4 18:45:20 10° WNW 18:48:48 17° W 18:52:16 10° SW visible
15 Oct 6.4 18:31:12 10° WNW 18:34:47 18° W 18:38:22 10° SW visible
